Wind_Speed
6 8 10 11 12 12 13 12 12 13 14 14 14 14 14 14 14 16 17 18 18 18 17 17 18 19 19 20 21 22 22 22 21 21 21 21 21 21 21 20 20 20 19 19 18 18 17 16 16 15 14 14 13 12 12 13 14 15 15 16 17 18 19 19 19 18 20 22 23 24 25 25 25 26 27 27 26 27 26 27 27 28 29 31 33
7 8 9 11 12 13 14 14 13 13 14 14 14 15 15 15 15 16 17 18 18 19 19 18 19 19 20 20 22 22 23 23 23 23 23 23 22 22 22 22 21 21 20 20 20 19 18 17 16 14 13 13 13 13 14 14 14 15 16 16 17 18 19 20 20 19 20 22 25 26 27 27 26 26 28 28 28 28 27 27 28 28 30 32 33
10 10 10 11 12 14 15 15 14 14 14 15 15 15 15 15 16 17 17 18 19 20 20 20 20 20 20 21 22 23 23 24 24 24 24 24 24 23 23 23 22 22 21 21 20 19 18 16 15 14 13 13 14 14 14 15 15 15 16 16 17 19 20 21 21 21 20 20 23 26 28 29 28 28 30 30 30 29 29 28 29 29 31 32 33
13 13 13 12 13 15 16 16 16 15 15 15 15 15 15 16 17 17 17 19 20 20 21 21 21 21 21 21 22 23 24 24 24 24 24 24 24 24 23 23 22 22 21 21 21 19 17 16 16 15 14 14 14 15 16 16 17 17 17 18 19 20 22 23 23 23 22 20 21 23 26 28 29 29 31 32 32 31 31 30 29 30 31 32 32
16 16 16 15 15 16 17 17 17 16 16 16 16 16 16 16 17 18 18 19 20 21 22 22 22 21 21 22 23 23 24 24 24 24 25 25 24 24 23 22 22 21 22 22 21 19 18 16 16 16 15 15 15 16 18 18 19 19 19 20 22 23 24 25 25 25 25 23 21 22 24 27 28 29 31 33 33 33 33 32 31 30 31 32 32
18 18 18 17 17 17 18 18 17 17 16 16 16 17 17 17 17 18 18 19 21 22 23 22 22 21 21 22 23 24 24 25 25 24 25 25 25 24 23 23 22 22 22 22 21 20 18 17 17 17 17 16 17 18 19 20 20 21 21 23 24 26 27 28 28 28 27 25 23 23 24 26 28 29 31 33 34 33 33 33 32 30 31 31 31
18 18 18 18 18 18 19 19 18 17 17 17 17 18 18 17 17 18 18 19 21 22 23 22 22 21 22 22 23 24 25 26 26 25 25 25 25 25 24 23 23 24 24 23 22 21 19 18 18 18 18 18 19 20 21 21 21 22 23 24 25 27 28 29 31 30 28 27 26 25 25 27 28 29 30 33 34 33 34 33 31 30 31 30 30
18 18 18 19 19 18 18 19 20 19 18 18 18 19 18 17 17 17 18 19 20 21 22 22 22 22 22 22 23 25 26 27 27 26 26 25 25 25 25 24 24 24 25 25 24 22 20 19 19 19 19 20 21 22 22 23 23 23 24 25 26 28 29 30 31 32 31 29 27 26 27 27 28 29 31 33 34 33 34 33 31 30 31 31 31
19 19 20 21 20 18 17 19 20 20 19 19 19 19 18 18 17 17 18 18 19 20 21 22 22 22 22 22 23 25 27 27 27 27 26 26 25 25 25 25 25 25 26 27 26 25 23 21 20 20 21 22 22 23 24 25 26 26 26 27 28 29 30 30 32 33 33 32 29 28 28 28 28 29 31 33 34 33 33 33 32 31 32 32 32
16 18 20 21 21 20 18 20 21 21 20 19 19 19 19 19 19 18 18 18 18 19 20 22 23 23 22 22 23 24 26 26 27 26 26 26 25 25 26 26 26 26 27 28 28 27 25 23 22 22 23 24 24 24 25 27 28 29 30 30 30 31 32 33 33 34 34 34 32 30 31 30 29 30 32 34 35 35 34 34 33 32 33 32 32
15 16 16 17 20 23 23 23 23 22 20 20 20 20 20 20 20 19 18 18 18 19 20 21 22 22 22 23 23 24 24 25 26 26 26 25 25 25 25 26 26 27 28 29 30 29 28 26 26 26 26 26 25 26 27 29 31 32 32 33 33 33 33 34 34 34 35 36 34 33 33 32 31 32 34 34 36 37 36 35 34 34 34 34 33
18 18 17 18 22 25 25 23 24 22 20 21 22 22 22 23 22 21 20 19 18 20 20 21 21 21 23 23 23 23 23 24 25 26 26 26 25 25 26 26 27 28 29 30 31 31 31 30 29 30 29 29 29 29 29 30 32 34 35 36 35 34 34 35 35 35 36 36 36 35 34 33 33 34 34 35 37 38 37 36 36 35 35 34 34
19 19 20 21 25 26 25 24 24 23 21 22 23 23 24 25 24 23 21 20 20 20 21 21 21 21 22 23 23 23 23 24 25 26 26 26 26 27 27 28 28 29 30 31 32 33 33 33 33 33 32 32 33 32 32 33 35 36 38 40 39 38 39 38 38 38 36 36 38 38 34 34 36 36 35 37 37 38 37 36 37 37 35 34 35
18 20 21 22 24 24 24 23 22 20 21 23 24 24 26 26 26 25 23 22 22 22 21 22 22 21 22 23 23 23 23 24 25 27 28 28 28 29 29 30 31 31 31 32 33 34 35 36 37 37 36 36 36 35 35 36 38 39 41 42 43 43 43 41 40 41 39 37 38 38 35 35 37 37 37 38 38 38 39 38 37 37 35 34 35
16 17 19 21 22 22 21 20 18 18 20 22 22 24 27 27 26 26 25 24 24 23 23 23 23 23 23 24 24 25 24 24 25 27 28 29 29 30 31 32 33 33 33 33 33 33 35 37 38 39 39 38 38 38 38 40 42 43 44 44 44 46 45 43 42 43 41 37 37 38 37 37 37 37 37 38 38 39 40 39 38 37 35 35 34
15 16 17 18 18 19 19 17 15 17 18 20 21 23 26 28 26 25 25 25 26 26 26 25 25 24 24 25 26 26 25 25 26 27 28 29 31 32 33 34 35 35 35 34 34 34 35 37 38 39 39 39 39 40 42 44 46 46 45 45 45 46 46 44 45 45 40 36 38 39 38 37 37 37 37 38 39 40 41 40 38 36 36 35 32
17 17 18 17 16 16 16 16 16 17 18 19 20 20 23 26 26 26 26 26 26 27 27 27 26 26 26 27 27 27 26 26 27 28 29 30 32 33 35 35 36 36 36 36 36 37 37 37 38 39 39 40 40 41 44 47 49 49 47 47 47 47 47 46 47 44 37 35 37 38 38 38 39 38 38 38 40 42 42 40 38 37 36 34 33
19 18 18 18 17 15 15 16 16 17 18 18 18 19 21 24 26 27 27 27 28 28 28 29 29 29 29 29 29 29 29 29 29 30 30 31 32 34 35 36 37 37 37 37 37 38 38 38 39 41 42 42 43 45 48 50 51 51 51 50 50 50 48 48 46 42 36 35 36 38 39 39 39 38 38 39 41 42 41 40 38 37 35 34 34
22 21 20 18 18 17 16 15 15 16 17 17 18 19 20 21 25 27 28 28 29 29 30 30 31 32 31 31 31 32 31 31 32 32 32 33 34 35 36 38 39 39 39 39 40 40 41 41 42 43 45 45 45 47 49 50 52 52 52 53 54 51 47 45 42 39 37 37 38 40 40 38 37 37 37 39 40 41 41 40 38 36 35 34 35
23 24 23 21 20 18 17 16 15 15 15 16 18 20 21 22 24 27 28 28 30 32 32 31 31 32 33 33 33 34 34 34 34 35 35 35 36 38 39 40 41 41 42 42 42 43 43 44 45 45 46 46 47 49 50 52 53 52 52 54 53 48 43 40 39 39 40 41 41 40 37 36 35 36 37 39 40 40 40 40 38 36 36 36 36
24 24 24 24 23 22 19 17 16 15 15 16 16 18 21 22 22 25 26 27 28 31 32 33 32 32 33 35 36 36 36 36 36 37 37 37 38 40 41 42 43 43 44 44 45 45 45 45 46 46 47 48 49 49 50 51 52 51 52 51 45 38 36 36 36 38 39 38 37 35 34 33 34 35 38 39 38 38 40 39 37 37 38 39 37
26 26 25 25 25 25 23 20 17 17 17 17 17 17 18 19 20 21 23 24 27 29 30 31 31 31 32 34 35 36 37 38 39 39 40 40 41 43 43 43 42 43 43 44 45 45 45 46 46 46 47 48 50 52 51 51 50 47 43 37 32 30 32 32 32 33 32 30 30 31 33 34 35 36 36 34 33 36 38 38 37 38 38 36 32
27 27 27 27 26 26 25 22 19 18 18 18 18 17 16 16 17 19 20 22 25 28 29 30 30 31 32 33 34 36 39 39 39 40 42 42 42 43 44 43 42 43 44 44 44 44 45 46 47 47 46 47 48 49 49 48 44 38 31 26 27 29 31 29 28 27 26 26 27 30 33 34 33 31 29 28 31 36 38 37 37 37 33 28 27
25 25 25 26 25 24 24 22 20 19 19 19 19 17 15 15 15 17 18 20 21 22 25 28 29 30 31 31 32 34 38 40 39 37 38 41 43 43 43 42 42 43 44 44 44 45 45 46 48 48 49 50 49 46 42 38 34 30 27 27 29 30 29 28 27 26 25 27 29 30 30 29 27 26 26 29 33 36 36 34 33 30 27 25 26
22 22 22 22 22 22 21 21 20 19 19 19 18 18 16 15 16 16 17 18 19 19 20 22 24 25 27 27 28 30 34 37 38 35 33 36 38 39 39 39 40 42 44 45 47 48 49 51 52 51 50 48 45 41 37 33 31 29 29 30 31 30 28 26 26 26 27 29 29 28 27 27 28 29 30 31 32 30 28 27 26 25 25 26 26
20 20 19 17 17 18 18 19 19 18 18 18 18 18 18 18 18 18 18 19 20 20 20 22 23 24 25 26 26 27 29 31 33 35 34 36 37 38 40 42 43 44 45 46 46 45 45 45 44 43 39 33 31 31 31 30 30 29 29 29 29 28 26 25 26 28 29 30 30 30 30 30 30 29 28 27 25 23 22 22 23 24 25 25 23
17 17 16 16 15 15 15 15 16 17 18 18 18 18 19 20 20 20 19 20 22 22 23 24 25 26 26 26 26 26 26 26 28 31 33 35 35 35 36 36 36 35 34 34 34 35 35 34 34 35 32 28 27 28 29 28 27 26 26 26 25 24 23 24 25 26 27 26 26 27 27 26 25 24 23 22 21 20 20 21 22 23 23 22 21
15 15 15 16 17 17 17 18 20 21 22 20 19 17 17 18 20 21 21 23 24 24 25 26 27 27 27 26 26 26 26 26 25 26 27 28 29 29 28 26 24 23 22 23 25 27 25 20 21 27 28 24 22 22 22 22 22 20 20 20 21 22 24 25 25 25 24 22 20 20 20 20 20 20 20 20 20 21 22 23 22 22 22 22 21
16 16 16 17 17 18 18 20 21 23 22 21 19 18 16 16 17 18 18 19 19 18 18 19 21 22 23 24 25 25 25 25 24 23 23 22 21 20 18 16 14 15 16 17 20 21 16 9 8 11 14 13 13 14 14 14 14 15 15 15 15 17 20 21 20 19 18 17 16 16 17 17 18 19 20 21 22 23 24 24 22 22 23 23 22
17 17 16 17 17 17 17 18 18 19 19 19 19 19 18 17 17 17 17 17 17 17 16 16 15 15 15 15 16 17 19 20 20 21 21 21 19 16 15 14 14 15 16 16 17 19 18 15 13 12 12 12 14 14 14 14 14 15 15 15 15 15 15 14 14 14 15 15 17 18 18 19 20 21 22 23 24 24 25 25 24 24 24 25 25
18 18 17 17 17 17 17 17 17 17 17 17 17 17 17 17 17 17 17 17 18 19 19 19 19 20 19 18 17 16 15 15 16 16 17 16 15 15 15 16 14 13 13 13 14 15 16 16 16 15 15 16 16 16 17 16 16 16 15 14 14 14 14 15 17 17 18 19 19 20 21 22 22 23 23 24 25 26 26 26 27 26 26 26 25
18 18 18 18 17 17 17 17 17 17 16 17 17 17 18 18 18 18 18 18 17 17 18 18 18 18 19 19 18 18 18 17 17 17 16 16 15 16 16 16 16 15 15 15 15 15 15 15 15 16 16 16 16 16 15 15 15 15 15 15 16 16 17 18 18 19 19 20 21 21 22 22 23 23 24 24 25 25 25 25 24 24 23 21 20
18 17 17 17 17 16 16 16 16 16 15 15 15 16 16 16 17 17 17 18 17 16 16 16 16 16 17 17 16 16 17 17 17 17 17 17 18 18 18 18 18 17 17 17 17 16 16 16 15 15 15 16 16 17 17 17 18 18 18 18 18 18 18 18 18 18 19 19 19 20 20 21 21 21 21 21 21 20 19 18 17 16 16 15 14
18 18 18 18 17 17 16 16 16 16 16 16 16 16 15 15 15 15 16 16 17 17 17 16 16 16 16 16 16 16 16 16 16 16 17 17 18 19 20 20 20 19 19 19 19 19 18 18 18 18 17 17 17 17 16 17 17 17 17 17 17 16 16 16 16 16 16 16 16 17 18 18 18 17 17 16 15 14 13 12 12 11 11 11 12
18 18 18 18 18 18 18 17 17 17 17 17 16 16 16 16 16 16 16 16 16 16 16 16 16 16 16 16 17 17 18 18 18 18 18 18 19 19 19 20 20 19 19 19 18 18 18 17 17 16 16 15 15 15 15 14 14 14 14 14 14 14 14 14 14 15 15 15 15 15 15 15 14 14 13 12 12 11 11 11 10 10 11 11 12
17 17 17 17 17 17 17 17 17 17 16 16 16 15 15 15 15 15 15 15 15 14 14 15 15 15 15 16 16 17 17 18 18 18 18 18 18 18 18 19 19 19 18 18 17 17 16 16 15 15 14 14 13 13 13 13 13 13 14 14 15 15 15 16 16 15 15 14 14 13 12 12 11 11 12 12 12 12 11 11 11 12 12 13 14
15 16 16 16 16 16 17 16 16 15 15 15 15 15 14 14 14 15 15 14 14 14 14 14 14 14 15 15 15 15 16 16 17 17 17 17 18 18 19 19 19 20 20 19 19 18 17 16 15 15 14 14 14 14 14 14 15 15 15 16 16 16 16 16 16 16 16 15 14 12 11 10 9 10 11 12 13 13 12 12 13 14 15 15 15
14 14 14 14 14 15 15 16 15 15 15 15 15 15 15 15 15 15 15 15 15 15 15 15 15 14 14 14 15 15 15 16 16 17 17 17 18 18 18 19 19 20 20 20 19 19 19 18 18 17 16 15 15 16 16 16 17 17 16 16 16 16 16 17 17 17 16 15 13 12 11 10 9 9 10 12 13 13 14 14 15 16 17 17 16
14 13 13 13 13 13 14 15 15 15 15 15 15 15 15 15 15 15 16 16 17 17 17 17 17 16 15 15 15 15 15 15 15 15 16 17 17 17 17 18 18 18 18 18 19 19 20 20 20 19 19 18 18 18 19 19 19 20 20 19 18 17 17 17 17 16 15 14 13 11 11 11 10 10 11 12 13 14 15 17 17 18 18 17 16
13 12 12 12 12 12 13 14 14 15 15 15 15 15 15 15 15 16 16 17 17 18 18 18 18 17 17 17 17 17 17 17 16 16 17 17 18 18 18 18 18 18 18 18 19 20 20 20 20 20 20 20 20 20 20 20 20 21 21 22 22 21 20 18 17 16 15 15 14 13 11 11 11 10 11 12 13 15 16 18 18 19 18 17 16
14 14 13 13 12 12 12 13 13 14 14 15 16 16 16 16 16 16 17 17 17 17 17 17 17 17 18 19 19 19 19 19 19 19 19 19 19 20 20 20 21 21 21 21 21 22 22 22 22 21 21 22 22 22 22 22 22 21 21 21 22 22 22 21 20 19 18 18 18 17 15 13 11 11 11 11 12 13 15 17 18 18 19 18 17
15 16 16 15 14 13 13 14 14 14 15 15 16 16 16 17 17 17 17 17 18 17 17 18 18 19 19 19 19 20 20 20 20 20 20 20 20 21 21 22 23 23 24 24 24 24 24 24 24 24 24 24 24 24 24 24 23 21 20 20 20 20 21 22 22 22 22 21 21 21 19 17 17 17 16 14 14 14 15 16 17 18 19 20 20
17 17 18 17 17 16 15 15 15 16 16 17 17 17 18 18 18 18 18 18 18 19 19 19 20 21 21 21 21 21 21 21 21 21 22 22 22 22 23 23 24 25 26 26 27 27 27 27 26 26 26 26 25 25 25 24 23 22 21 20 20 20 20 21 22 22 21 21 22 22 21 20 20 21 21 21 21 20 19 18 18 18 19 20 21
18 18 19 19 19 19 18 17 17 17 18 18 19 19 19 19 20 20 20 20 20 21 21 21 22 22 23 23 23 23 23 23 23 23 23 23 24 24 24 25 25 26 27 28 28 29 29 29 29 28 28 28 27 27 26 26 25 24 23 22 21 21 20 21 21 21 21 22 23 23 21 20 21 23 24 24 25 25 25 23 21 20 19 20 20
20 20 21 21 21 21 20 20 19 19 20 20 20 21 21 22 22 22 23 23 23 23 23 24 24 24 25 25 25 25 26 26 26 26 26 26 26 26 26 26 27 27 28 29 30 30 30 30 30 30 30 30 30 30 29 29 28 28 27 26 25 24 23 23 22 22 22 23 24 24 23 23 24 25 26 26 27 27 27 27 25 23 21 20 19
23 23 23 22 22 22 22 21 21 21 22 22 22 23 23 24 24 25 25 25 26 26 26 26 26 27 27 27 28 28 28 28 29 29 29 29 29 29 28 28 28 28 29 30 30 31 31 31 31 32 32 32 32 32 32 32 32 31 31 30 29 29 28 27 26 26 25 24 24 25 25 26 26 26 27 28 28 28 28 28 27 26 25 24 20
23 23 23 22 21 21 21 21 21 22 22 23 24 24 24 25 25 26 26 27 27 28 28 28 29 29 30 30 30 30 31 31 31 31 31 31 31 31 31 31 31 30 30 31 31 32 32 32 32 32 33 33 33 33 33 33 33 34 34 34 34 33 32 32 31 30 28 27 27 27 27 28 28 28 29 29 29 29 29 29 29 28 28 27 23
22 22 22 22 21 21 21 21 21 22 23 24 24 25 25 26 26 27 27 28 28 29 29 30 30 31 32 32 32 33 32 33 33 33 33 33 33 33 33 33 33 32 32 32 32 32 33 33 33 33 33 33 33 33 33 34 34 34 34 35 35 35 35 34 34 33 32 31 30 30 30 30 30 30 30 30 30 29 30 30 30 30 30 29 25
20 21 22 22 22 22 22 22 23 23 24 24 25 25 26 27 27 28 28 28 29 29 30 31 32 32 33 33 33 33 34 34 34 33 33 33 33 33 34 34 33 33 33 33 33 33 33 33 34 34 34 34 34 34 34 34 35 35 35 35 36 36 36 36 36 36 36 36 35 34 34 33 32 31 31 31 31 30 31 31 32 32 32 30 27
20 22 23 23 24 24 24 24 25 25 25 26 26 27 27 28 28 28 29 29 29 30 31 32 33 33 34 34 34 34 34 34 34 34 34 34 34 34 34 34 34 34 34 34 34 34 34 34 34 34 35 35 35 35 36 36 36 36 36 36 36 37 37 37 37 37 37 38 38 38 37 36 34 32 31 31 31 31 31 31 33 34 34 33 30
22 23 24 24 25 25 26 26 26 26 26 27 27 27 28 28 28 29 30 30 31 31 32 33 33 34 34 34 35 35 35 35 35 35 35 35 35 35 35 35 35 35 35 35 35 35 35 35 35 35 35 35 35 36 36 36 36 37 37 37 37 37 37 37 37 37 37 37 37 37 36 36 35 33 32 31 32 34 34 33 34 35 36 35 33
Wind_Direction
300 292 287 286 287 290 293 290 280 272 267 266 266 265 264 262 261 261 259 257 257 256 254 253 253 253 251 249 247 246 245 244 244 243 244 245 245 247 248 249 250 250 250 249 248 247 245 246 247 248 248 250 252 255 257 263 268 273 276 280 284 287 289 291 294 295 296 297 297 297 297 297 297 296 296 297 298 298 297 297 298 301 305 308 313
298 295 289 286 283 280 281 283 281 275 270 268 267 267 265 262 258 257 256 255 254 254 253 252 252 253 253 252 250 248 247 246 246 245 246 246 247 247 248 249 250 250 250 249 247 245 243 243 244 245 246 248 253 258 262 267 270 273 277 282 286 289 291 293 295 296 295 295 297 298 298 297 298 297 296 297 298 298 297 295 296 299 302 306 312
286 288 288 285 278 272 272 276 279 277 273 270 269 269 267 263 259 256 255 253 251 251 251 250 250 251 252 252 251 249 248 248 247 246 247 248 248 247 247 248 248 247 246 245 243 242 240 240 242 244 246 250 255 260 264 267 270 273 277 282 286 289 292 295 297 297 295 293 293 295 296 298 299 298 296 297 297 297 297 295 295 297 300 304 310
279 280 283 283 277 270 268 270 274 277 276 273 270 269 268 265 261 258 254 252 250 249 249 249 249 250 251 251 250 248 247 247 247 246 245 246 246 246 245 244 243 242 241 240 238 237 236 239 244 247 248 251 256 261 265 268 270 273 278 283 286 289 291 294 295 295 296 294 290 287 289 293 296 296 295 295 295 296 296 295 294 295 297 302 308
276 275 274 276 275 271 267 266 269 275 277 273 269 267 266 264 262 259 255 252 250 248 248 248 249 249 251 250 248 246 245 245 245 244 243 244 243 243 242 240 238 237 235 234 233 233 235 241 246 249 248 250 257 263 267 271 274 278 283 287 289 290 291 293 294 294 296 298 293 285 284 287 290 292 293 293 293 294 295 294 293 293 295 299 305
271 270 270 273 277 276 271 265 266 269 271 270 267 265 264 264 262 260 255 251 249 248 247 248 249 251 251 250 247 244 242 242 242 241 241 242 241 240 239 237 235 233 231 230 230 232 237 243 248 251 251 254 259 265 270 275 279 283 287 290 291 292 293 295 296 295 296 299 297 291 285 284 286 289 291 291 292 292 292 291 292 292 292 296 304
272 271 270 270 275 279 276 269 265 264 264 263 261 261 263 264 264 262 257 251 248 247 248 248 250 252 251 250 247 243 241 241 241 240 240 241 241 240 238 236 234 232 229 227 229 233 238 244 250 254 257 258 261 265 271 276 281 285 289 292 293 293 293 292 292 293 295 297 298 295 288 284 285 287 288 290 291 290 289 288 289 289 290 293 300
272 272 270 270 273 277 274 266 260 259 259 258 258 261 263 265 265 263 258 253 248 247 248 249 250 251 252 251 249 244 241 241 241 241 240 240 241 241 239 236 235 233 230 228 230 234 239 245 251 256 259 261 263 266 271 275 279 284 289 292 294 294 292 289 288 291 293 295 297 297 292 289 286 286 287 288 289 289 288 288 288 287 286 289 294
268 266 265 267 269 269 264 257 255 256 256 255 256 258 261 263 263 262 260 256 251 247 247 248 249 250 251 251 250 247 244 243 243 242 241 241 241 241 240 239 237 236 233 232 233 236 240 245 250 253 256 259 262 267 271 275 279 282 285 289 292 294 294 290 288 289 292 294 297 297 296 295 292 287 286 288 289 290 289 288 288 285 283 286 291
272 270 267 267 266 262 253 247 248 249 251 254 254 253 255 258 259 259 259 257 253 249 247 247 248 249 250 250 251 250 248 246 245 243 242 241 241 241 242 241 241 240 238 237 237 238 241 245 249 252 255 258 263 267 273 277 280 282 285 287 289 290 290 289 288 289 290 292 295 296 297 300 297 291 288 289 290 291 290 289 287 284 283 284 287
267 268 269 269 266 262 253 246 246 246 246 250 252 249 248 251 253 255 256 255 253 251 249 248 250 250 250 249 249 251 251 249 246 244 243 242 242 242 243 243 244 245 244 242 240 240 241 245 249 253 256 259 264 267 271 276 279 282 284 284 283 283 285 288 290 290 290 292 294 295 296 298 297 293 291 290 290 291 292 290 287 285 284 284 286
272 270 268 266 264 266 267 263 258 253 247 249 254 253 248 246 247 249 251 253 253 252 251 250 250 251 250 248 248 250 251 249 246 245 244 244 244 245 246 246 247 248 249 247 244 241 242 245 249 253 257 261 264 266 269 274 278 281 282 281 281 281 282 285 287 287 287 289 291 294 295 295 294 292 291 291 290 290 291 290 287 285 284 285 288
295 289 279 271 270 275 283 281 269 260 252 249 252 255 254 251 249 247 246 248 249 250 251 250 249 250 250 250 250 251 250 248 245 244 245 245 246 248 249 249 249 250 250 249 247 244 243 246 250 253 257 260 263 266 270 273 276 279 281 281 283 283 283 283 283 283 282 283 287 293 295 292 292 293 292 291 290 289 289 288 286 285 286 287 289
312 302 288 281 281 283 287 286 278 270 263 253 247 248 252 255 255 251 246 245 247 248 249 249 249 249 249 250 252 253 252 248 244 243 244 245 247 249 250 251 252 252 252 251 251 249 247 249 252 255 258 261 264 266 269 272 274 276 278 279 280 282 283 282 282 283 282 280 282 289 292 291 291 292 291 290 291 289 288 288 287 286 287 288 289
319 310 298 293 291 289 289 287 278 269 265 260 253 248 248 250 254 254 251 249 250 249 248 247 247 246 246 247 249 251 253 251 247 244 243 244 246 249 251 252 253 254 254 255 256 255 253 253 255 257 260 262 265 266 268 270 272 273 275 276 278 280 282 283 284 285 283 277 277 283 289 290 289 288 288 289 290 288 287 288 288 287 288 287 289
318 315 310 306 301 296 295 290 275 263 260 261 258 254 249 247 249 252 253 253 252 251 250 249 247 246 245 246 247 249 250 252 250 248 246 245 247 249 251 253 255 256 257 258 258 258 257 258 259 260 262 263 265 267 268 270 271 273 275 277 278 279 281 282 284 284 281 275 276 281 285 287 287 287 288 288 288 288 288 288 289 289 288 288 290
316 315 317 317 312 303 296 292 282 272 265 261 261 258 250 244 244 248 251 254 255 256 255 253 250 248 245 244 246 247 247 249 249 249 248 248 249 251 253 255 256 258 258 259 260 260 259 260 261 262 263 264 265 267 269 271 273 275 277 278 279 279 281 282 283 284 281 276 277 280 283 285 286 286 286 285 285 286 287 288 289 289 289 290 292
314 313 315 318 317 310 301 294 288 281 272 266 264 260 250 241 240 245 249 252 255 258 258 255 252 250 248 246 246 246 245 246 247 247 247 248 250 251 253 255 256 257 258 259 260 261 262 263 264 265 266 267 268 269 270 271 273 275 277 279 279 280 282 284 285 285 282 278 277 280 282 284 285 284 285 284 284 285 287 287 288 289 290 292 293
313 312 311 313 315 315 311 303 294 285 277 271 269 269 263 251 243 245 248 250 252 254 255 254 253 252 251 250 249 247 246 245 246 247 246 248 250 252 253 255 255 256 258 259 260 262 263 264 265 267 268 269 270 270 271 273 274 275 276 277 278 280 283 285 284 281 279 277 278 279 280 282 284 285 284 283 283 285 286 287 288 290 291 293 294
311 311 311 310 310 310 311 309 304 293 282 278 277 277 274 265 251 247 248 249 250 251 251 252 253 253 253 252 252 251 250 249 249 251 251 251 254 255 256 257 257 258 259 260 260 261 263 264 266 268 270 271 271 272 272 273 274 275 275 275 276 279 281 280 278 276 276 276 276 277 280 283 284 281 280 280 282 284 285 287 290 292 293 294 296
305 306 308 309 309 307 305 305 306 301 292 287 286 282 277 271 262 256 253 252 253 254 252 251 252 252 252 253 253 253 253 252 252 253 254 255 256 258 259 259 259 260 261 261 262 263 264 266 268 269 270 271 271 272 274 274 275 276 277 275 274 275 276 276 275 275 275 276 277 278 280 281 278 274 275 277 279 281 284 287 290 291 293 296 296
301 302 302 303 305 305 303 300 299 300 299 295 291 286 282 280 277 274 269 265 262 258 254 252 253 253 253 254 255 255 255 255 254 254 254 255 255 257 258 260 261 263 264 265 266 267 268 269 270 271 272 272 272 273 275 276 276 278 279 277 272 271 274 275 275 275 275 276 276 276 276 275 272 271 271 271 274 280 284 287 289 291 294 297 299
300 300 299 298 298 299 299 298 295 296 299 299 296 290 286 287 287 285 282 279 274 266 256 252 254 255 256 258 260 258 254 253 255 256 255 255 257 258 258 260 262 263 265 267 267 268 269 270 272 276 276 274 274 275 277 278 278 277 276 274 272 271 273 275 277 279 279 278 276 274 271 268 264 262 263 267 275 282 286 287 288 289 292 298 304
304 301 298 295 294 294 295 295 294 293 296 299 300 298 294 293 291 288 285 286 286 279 266 261 262 264 266 268 271 269 263 254 252 256 258 256 256 257 258 259 261 262 265 268 268 269 270 271 273 277 277 275 275 276 279 281 279 273 268 269 270 272 274 277 279 279 276 271 267 264 260 256 255 261 270 277 281 283 284 285 287 291 299 308 311
312 310 305 298 293 291 292 293 294 295 297 301 302 300 298 294 290 288 287 285 286 285 278 273 273 274 275 276 277 281 279 266 254 254 260 260 259 261 263 264 266 266 267 268 268 269 270 271 273 274 275 275 274 274 276 275 271 267 267 270 271 271 274 276 276 274 271 265 260 257 258 263 270 277 280 281 281 283 286 291 297 303 307 308 307
321 321 318 310 301 295 294 294 295 297 300 302 301 298 296 294 290 287 287 284 282 282 280 278 277 276 277 280 280 283 287 279 262 256 262 267 268 268 270 270 270 271 270 269 269 270 272 276 277 277 278 276 271 271 274 271 267 268 271 272 273 275 277 275 269 265 265 263 263 265 270 274 277 279 280 282 287 294 300 304 307 305 302 302 302
329 331 332 329 324 319 315 313 313 314 313 309 305 300 298 297 294 290 288 286 284 283 281 280 280 277 276 278 279 278 280 279 270 264 266 270 271 272 273 274 275 277 277 275 275 276 277 275 269 264 260 255 251 257 264 266 268 271 272 271 271 272 271 266 260 257 260 264 266 269 272 274 277 281 287 294 301 307 308 307 306 304 303 302 301
336 335 335 334 332 329 327 325 325 326 327 324 321 319 315 310 304 296 289 286 285 285 282 278 278 278 277 277 277 277 277 276 274 272 272 273 274 275 277 277 279 282 281 280 279 275 267 255 243 239 240 243 251 261 269 270 272 272 268 265 262 257 254 254 256 259 263 264 266 271 277 284 291 298 304 309 312 313 312 311 310 308 306 303 300
340 337 333 331 329 327 325 322 319 321 323 324 324 324 323 320 314 305 292 284 283 286 286 280 274 271 271 271 270 269 270 273 275 277 276 272 269 269 268 264 265 267 265 268 273 266 254 249 254 246 243 250 256 256 253 250 247 245 244 247 252 254 256 259 263 269 273 278 287 297 305 312 316 317 318 317 315 313 311 309 306 302 299 298 296
343 341 338 336 335 333 332 329 326 325 324 324 324 324 321 317 314 311 304 297 296 301 307 307 302 294 286 280 274 266 260 260 262 263 261 255 247 246 252 255 256 255 251 252 259 258 255 264 273 263 246 240 237 236 241 248 254 259 264 270 276 283 290 296 303 313 319 324 327 328 328 327 324 320 316 312 309 308 306 304 302 299 297 297 295
342 342 341 340 340 340 340 340 338 336 335 334 334 335 333 329 324 320 318 316 315 314 314 314 313 311 310 310 310 305 295 285 278 272 267 262 259 263 272 275 275 273 269 268 270 270 269 273 276 274 270 268 269 275 282 288 292 296 302 310 318 327 336 341 343 343 341 337 333 328 323 319 314 310 306 303 301 301 302 301 301 300 299 300 301
340 341 341 342 343 344 344 344 343 342 340 338 338 337 337 337 336 334 333 334 334 333 332 329 325 323 323 324 325 324 323 321 317 313 311 311 312 312 310 310 311 312 311 310 309 306 303 302 301 301 300 300 303 309 315 323 330 336 341 347 349 350 349 346 343 338 331 326 321 316 312 308 304 302 300 299 299 299 299 299 299 300 302 305 307
339 339 340 342 343 344 344 343 343 342 340 338 337 336 334 334 334 333 333 335 337 338 338 338 338 339 341 342 341 340 339 336 332 328 326 325 326 327 329 330 332 333 334 336 338 340 340 340 340 341 342 343 345 347 350 353 353 352 351 349 347 343 339 334 330 324 319 315 311 308 305 303 302 302 301 301 301 302 302 303 304 306 310 312 312
341 341 341 342 342 343 343 343 343 343 342 341 340 338 337 336 337 337 337 337 339 342 345 346 348 350 353 355 357 358 357 355 352 351 351 351 352 353 355 356 358 359 360 359 359 360 1 0 360 359 358 357 355 353 350 347 344 341 339 336 333 329 325 322 319 316 313 310 308 305 304 303 304 305 305 307 309 310 312 314 316 318 319 318 317
341 341 341 342 341 341 341 343 346 347 348 347 346 345 344 343 342 344 344 344 346 348 350 353 356 359 4 8 11 13 13 12 11 11 10 10 9 7 5 4 3 2 0 359 358 357 354 353 351 349 346 343 340 336 334 333 331 329 327 324 323 322 320 319 318 316 314 312 309 308 309 310 312 315 318 321 322 322 322 324 324 324 322 321 321
337 338 339 340 339 338 338 342 346 348 348 349 350 350 349 347 345 345 346 347 349 350 351 353 355 359 2 6 9 10 10 9 7 6 5 5 3 359 357 355 353 350 348 346 345 343 342 341 340 337 335 333 332 331 331 330 328 326 324 323 322 321 321 320 320 319 317 315 313 313 316 322 328 331 331 330 328 325 323 321 320 320 319 319 319
332 333 334 335 336 335 336 338 342 343 343 343 346 348 348 348 347 346 345 344 343 344 345 347 349 351 353 355 357 358 357 356 355 354 353 352 350 349 347 345 343 341 339 338 337 335 335 335 333 331 331 330 330 330 329 328 327 325 324 323 322 322 323 323 322 321 319 316 313 312 314 321 330 333 330 326 323 320 317 316 316 316 316 316 317
330 329 330 331 332 333 334 336 338 338 337 336 338 340 342 344 345 344 343 341 339 337 337 337 339 341 342 342 343 345 345 344 343 343 342 341 341 340 340 339 338 336 334 332 330 328 326 325 324 324 324 325 326 326 325 323 322 320 318 318 320 321 323 323 322 321 320 318 317 317 315 315 317 319 319 316 314 311 310 311 313 315 316 315 316
330 328 327 328 328 328 329 331 332 332 332 332 332 334 336 338 339 338 337 336 335 334 333 332 333 335 336 336 337 337 336 335 334 333 332 331 331 331 331 330 330 329 328 326 323 321 320 319 318 318 318 318 319 319 320 321 320 319 318 318 319 319 321 322 322 322 323 322 321 319 317 315 312 310 308 307 306 305 305 306 309 312 313 312 312
325 324 322 321 322 322 323 324 325 325 327 327 328 329 331 332 331 332 332 332 332 333 332 331 330 331 331 332 332 331 329 328 328 327 326 325 324 323 323 322 322 321 320 318 317 316 316 316 316 315 314 314 315 316 318 319 320 320 320 319 319 321 322 323 322 322 322 322 319 314 309 308 309 310 309 306 303 301 301 301 302 304 305 305 306
317 316 314 314 314 314 314 314 315 318 321 322 322 322 323 324 325 325 326 326 327 328 328 327 325 324 325 326 325 325 324 323 321 321 320 320 319 319 318 317 317 316 315 314 314 314 314 314 314 314 313 314 315 316 317 318 319 318 318 317 317 318 320 322 322 322 323 325 326 323 317 311 310 313 315 313 308 305 303 302 301 301 301 301 303
310 309 309 310 309 309 308 308 308 311 313 314 315 315 316 317 317 317 318 320 321 321 320 318 316 316 317 317 317 316 315 316 316 316 315 315 314 313 312 312 311 311 311 310 310 309 309 309 310 310 311 312 312 313 313 314 314 312 311 311 311 311 312 315 318 321 322 323 327 329 328 324 321 321 322 323 321 319 317 315 311 308 305 302 301
301 302 304 305 306 306 305 306 307 309 309 310 311 311 311 311 310 310 310 311 312 312 312 311 311 311 311 311 310 310 310 311 312 312 312 311 310 309 307 307 306 306 306 305 305 304 305 305 305 306 307 307 307 307 306 306 306 305 305 305 305 304 304 306 310 315 316 313 315 320 323 321 319 319 320 321 321 321 321 322 321 320 315 309 304
294 297 300 302 304 305 304 304 305 306 308 309 310 310 309 309 309 308 308 307 307 307 306 306 306 306 306 307 307 307 307 308 309 310 310 310 309 307 306 304 302 301 301 300 300 300 300 301 302 302 302 301 301 300 299 299 299 298 299 299 299 299 299 300 303 305 304 301 302 307 310 310 309 308 309 311 313 314 315 317 320 322 321 316 310
296 296 297 299 301 303 305 306 306 305 306 307 308 309 309 309 308 308 308 307 307 307 307 307 307 306 306 306 305 305 306 306 306 307 307 307 306 306 305 303 301 300 298 297 297 297 297 296 296 296 296 296 295 294 293 292 292 292 293 293 294 294 294 294 292 293 294 294 295 296 297 300 301 300 300 301 303 304 308 311 314 317 319 318 314
304 303 301 300 301 303 306 308 308 307 306 305 306 307 307 307 307 307 307 307 308 308 308 308 307 307 306 305 305 305 305 305 305 305 304 304 304 304 303 302 301 300 298 297 296 295 295 294 293 292 292 292 291 290 289 288 288 287 288 288 288 289 289 288 286 285 286 287 287 286 287 290 293 294 293 294 295 298 301 305 308 311 315 319 317
307 309 310 310 309 308 309 309 308 305 303 301 301 302 303 303 304 304 304 305 305 306 307 307 307 306 306 305 305 304 304 304 303 303 302 302 302 301 301 300 300 298 297 296 295 294 293 292 291 290 290 290 290 290 289 288 287 287 286 286 286 286 285 284 283 282 280 279 278 278 279 282 286 288 288 288 290 293 296 298 300 303 309 317 320
308 313 316 318 318 317 314 311 308 305 303 302 301 301 301 301 301 301 301 302 302 303 304 304 305 305 305 305 304 304 304 303 303 302 302 301 300 300 299 299 298 297 296 295 294 293 292 292 291 290 290 289 289 288 288 287 287 286 286 285 285 285 284 283 281 280 279 278 277 276 275 276 279 282 282 282 284 286 289 292 295 297 303 312 317
312 316 319 322 323 322 319 317 314 312 310 309 308 306 305 303 302 301 301 301 301 301 302 302 303 303 304 304 304 303 303 302 302 301 301 300 299 298 297 297 296 295 295 294 293 293 292 292 291 291 290 289 288 287 287 286 286 285 284 284 283 282 282 281 279 278 278 277 277 277 276 275 275 276 276 276 277 280 283 287 290 292 298 306 311
315 319 322 323 324 323 323 322 321 318 315 312 309 307 306 305 304 304 303 302 302 301 301 301 302 303 303 303 303 302 302 302 301 301 300 299 299 298 298 297 296 296 295 295 294 294 293 292 291 290 289 288 287 287 286 285 285 284 283 282 282 281 280 279 279 278 277 276 275 275 275 274 273 272 271 271 272 275 277 281 285 288 292 297 301
314 317 319 321 322 322 323 322 322 321 318 314 310 307 305 305 304 304 304 303 303 302 301 301 302 302 302 302 302 302 302 302 301 301 301 301 300 300 299 298 298 297 296 295 294 294 293 292 291 290 289 288 287 286 285 284 284 283 283 282 281 280 280 279 279 278 277 277 276 275 273 271 268 265 263 264 269 271 273 276 280 283 286 290 293
Height
3115 3115 3115 3114 3114 3113 3113 3113 3112 3112 3112 3112 3113 3113 3113 3113 3114 3114 3115 3115 3116 3116 3117 3118 3118 3119 3120 3121 3122 3123 3123 3124 3124 3125 3125 3126 3126 3127 3127 3127 3127 3127 3128 3128 3128 3128 3128 3128 3128 3128 3128 3128 3127 3127 3127 3127 3127 3127 3126 3126 3125 3125 3124 3123 3123 3123 3121 3119 3118 3117 3116 3115 3114 3112 3110 3109 3108 3106 3106 3105 3103 3102 3101 3099 3097
3114 3113 3113 3112 3112 3112 3111 3111 3111 3111 3110 3110 3111 3111 3111 3111 3111 3112 3112 3113 3113 3114 3115 3115 3116 3116 3117 3119 3120 3120 3121 3122 3122 3123 3123 3123 3124 3124 3125 3125 3125 3125 3125 3125 3125 3126 3126 3126 3126 3126 3126 3126 3125 3125 3125 3125 3125 3125 3124 3124 3123 3122 3122 3121 3120 3120 3119 3117 3115 3114 3112 3111 3111 3109 3107 3106 3105 3104 3103 3102 3101 3100 3098 3096 3094
3112 3112 3111 3110 3110 3109 3109 3109 3109 3109 3109 3109 3109 3109 3109 3109 3109 3109 3110 3110 3111 3111 3112 3112 3113 3114 3115 3116 3116 3117 3118 3119 3120 3120 3120 3121 3121 3122 3122 3122 3123 3123 3123 3123 3123 3124 3124 3124 3124 3124 3124 3124 3123 3123 3123 3123 3123 3122 3122 3121 3121 3120 3119 3118 3118 3117 3117 3116 3114 3111 3109 3107 3107 3106 3104 3102 3102 3101 3100 3099 3098 3097 3095 3093 3092
3110 3110 3109 3109 3108 3107 3107 3107 3107 3107 3107 3107 3107 3107 3107 3107 3107 3107 3108 3108 3108 3109 3109 3110 3110 3111 3112 3112 3113 3114 3115 3116 3117 3117 3118 3118 3119 3119 3119 3120 3120 3120 3121 3121 3121 3122 3122 3122 3122 3122 3122 3122 3122 3121 3121 3121 3120 3120 3119 3119 3118 3117 3116 3115 3115 3114 3114 3114 3113 3110 3108 3106 3104 3103 3101 3099 3098 3098 3097 3096 3095 3094 3092 3090 3089
3108 3108 3107 3107 3106 3106 3105 3105 3104 3105 3105 3105 3105 3105 3105 3105 3105 3105 3106 3106 3106 3107 3107 3107 3108 3108 3109 3110 3110 3111 3112 3112 3113 3114 3115 3115 3116 3116 3117 3117 3118 3118 3118 3119 3119 3120 3120 3120 3120 3120 3120 3120 3120 3119 3119 3118 3118 3118 3117 3116 3115 3114 3113 3113 3112 3111 3110 3110 3109 3108 3106 3104 3103 3101 3099 3097 3096 3095 3094 3093 3093 3092 3090 3087 3086
3106 3105 3105 3105 3104 3104 3103 3103 3102 3102 3103 3103 3103 3103 3103 3103 3103 3103 3104 3104 3104 3104 3104 3105 3105 3106 3107 3107 3107 3108 3109 3109 3110 3111 3112 3113 3113 3114 3114 3115 3115 3116 3116 3117 3117 3118 3118 3118 3118 3118 3118 3118 3118 3117 3116 3116 3116 3115 3115 3114 3112 3111 3110 3109 3108 3107 3107 3106 3105 3105 3103 3101 3100 3099 3097 3094 3093 3093 3092 3091 3090 3088 3087 3085 3084
3103 3103 3103 3103 3102 3102 3102 3101 3101 3101 3100 3100 3100 3101 3101 3101 3101 3102 3102 3102 3102 3102 3102 3103 3104 3104 3105 3105 3105 3105 3106 3106 3107 3108 3109 3110 3111 3112 3112 3113 3113 3114 3114 3115 3115 3116 3116 3116 3116 3116 3116 3116 3116 3115 3114 3114 3113 3113 3112 3111 3109 3108 3107 3106 3105 3104 3103 3102 3102 3101 3100 3098 3097 3096 3094 3092 3091 3090 3089 3088 3088 3086 3084 3083 3082
3101 3101 3100 3100 3100 3100 3100 3100 3099 3099 3098 3098 3098 3098 3099 3099 3099 3099 3099 3100 3100 3100 3101 3101 3102 3102 3103 3103 3103 3103 3103 3104 3105 3106 3107 3108 3109 3110 3110 3111 3111 3112 3112 3113 3113 3113 3114 3114 3114 3114 3114 3114 3113 3113 3112 3111 3111 3110 3109 3108 3107 3106 3104 3103 3102 3100 3099 3099 3099 3098 3096 3095 3094 3093 3091 3089 3088 3087 3085 3084 3085 3084 3081 3080 3079
3098 3098 3097 3097 3097 3097 3097 3097 3097 3096 3096 3096 3096 3096 3096 3096 3096 3097 3097 3097 3098 3098 3099 3099 3099 3100 3100 3101 3101 3101 3101 3102 3103 3104 3105 3105 3106 3107 3108 3108 3109 3110 3110 3110 3110 3111 3111 3112 3112 3112 3112 3111 3111 3110 3110 3109 3108 3108 3107 3105 3104 3102 3101 3100 3098 3097 3096 3095 3095 3094 3093 3091 3091 3089 3087 3086 3084 3083 3082 3080 3081 3080 3078 3078 3076
3095 3095 3095 3095 3094 3094 3094 3093 3093 3093 3094 3094 3094 3093 3093 3093 3093 3094 3094 3095 3095 3096 3096 3096 3097 3097 3098 3099 3099 3099 3100 3101 3101 3102 3103 3103 3104 3105 3105 3106 3107 3107 3107 3108 3108 3108 3108 3109 3109 3109 3109 3108 3108 3108 3107 3106 3105 3104 3103 3102 3101 3099 3098 3097 3095 3094 3092 3090 3090 3090 3088 3088 3087 3084 3083 3082 3080 3079 3078 3077 3077 3076 3075 3075 3075
3092 3091 3091 3092 3091 3090 3089 3089 3089 3090 3091 3091 3091 3091 3090 3090 3090 3090 3091 3092 3092 3093 3093 3094 3094 3095 3096 3096 3097 3097 3098 3099 3099 3100 3100 3101 3101 3102 3103 3103 3104 3104 3104 3104 3105 3105 3105 3105 3106 3105 3105 3105 3105 3105 3104 3103 3101 3100 3100 3098 3097 3095 3094 3093 3092 3091 3089 3087 3086 3085 3084 3084 3083 3080 3078 3078 3077 3075 3075 3074 3073 3072 3071 3071 3071
3089 3089 3089 3088 3087 3086 3086 3087 3088 3088 3089 3089 3089 3088 3087 3087 3087 3087 3088 3088 3089 3090 3090 3091 3092 3093 3093 3093 3094 3094 3095 3096 3097 3098 3098 3099 3099 3099 3099 3100 3100 3101 3101 3101 3101 3102 3102 3102 3102 3101 3101 3102 3101 3101 3100 3099 3098 3096 3095 3094 3093 3092 3091 3090 3089 3087 3085 3084 3082 3080 3079 3079 3078 3077 3075 3074 3073 3072 3071 3070 3068 3068 3067 3067 3067
3088 3087 3087 3085 3083 3084 3086 3087 3086 3086 3086 3087 3086 3086 3085 3085 3084 3084 3084 3085 3086 3086 3087 3088 3089 3090 3090 3090 3091 3092 3092 3093 3094 3095 3095 3096 3096 3096 3096 3096 3097 3097 3097 3097 3097 3098 3098 3098 3098 3098 3098 3098 3097 3097 3096 3095 3094 3092 3091 3089 3089 3088 3087 3086 3085 3083 3082 3080 3078 3077 3076 3075 3073 3073 3071 3069 3069 3068 3067 3066 3064 3063 3063 3063 3062
3086 3085 3084 3082 3081 3082 3083 3083 3083 3083 3083 3082 3082 3083 3082 3082 3083 3082 3082 3082 3082 3083 3084 3085 3086 3086 3087 3087 3088 3088 3089 3090 3091 3091 3092 3093 3093 3093 3092 3092 3093 3093 3093 3093 3093 3094 3094 3094 3094 3094 3094 3094 3093 3092 3092 3090 3089 3088 3087 3085 3084 3083 3082 3081 3080 3079 3077 3076 3074 3073 3073 3071 3069 3068 3067 3065 3064 3064 3063 3062 3061 3060 3059 3059 3059
3084 3082 3081 3079 3079 3079 3079 3078 3079 3078 3078 3077 3078 3078 3078 3079 3079 3080 3079 3079 3079 3080 3080 3081 3082 3083 3083 3084 3084 3085 3086 3087 3088 3088 3088 3089 3089 3089 3089 3088 3088 3089 3089 3089 3090 3090 3091 3090 3090 3089 3089 3089 3089 3088 3087 3085 3084 3083 3081 3080 3079 3078 3076 3076 3076 3074 3072 3070 3069 3069 3068 3067 3065 3064 3063 3061 3060 3059 3058 3057 3057 3056 3055 3055 3055
3082 3080 3078 3077 3077 3076 3075 3075 3075 3075 3074 3074 3074 3075 3074 3074 3076 3076 3076 3076 3076 3076 3077 3078 3078 3079 3079 3080 3080 3081 3083 3084 3084 3084 3085 3085 3085 3085 3085 3085 3084 3084 3085 3086 3086 3086 3086 3086 3085 3085 3084 3085 3084 3083 3081 3079 3078 3077 3076 3075 3074 3072 3071 3071 3070 3069 3068 3066 3065 3064 3064 3063 3061 3060 3059 3057 3055 3054 3053 3053 3053 3051 3051 3051 3052
3080 3079 3077 3075 3074 3073 3073 3072 3072 3072 3071 3071 3071 3071 3071 3071 3072 3073 3073 3073 3073 3074 3074 3075 3075 3075 3076 3076 3076 3077 3079 3080 3080 3081 3081 3081 3081 3081 3080 3080 3080 3080 3081 3081 3081 3081 3081 3081 3080 3080 3079 3080 3080 3079 3076 3073 3070 3070 3070 3069 3068 3067 3067 3067 3065 3064 3063 3062 3060 3059 3059 3058 3057 3056 3054 3053 3051 3050 3049 3048 3048 3047 3046 3047 3047
3079 3077 3076 3074 3072 3071 3070 3070 3069 3069 3069 3069 3068 3068 3068 3068 3069 3069 3069 3069 3069 3070 3071 3071 3071 3071 3071 3072 3072 3073 3074 3075 3076 3076 3077 3077 3076 3076 3076 3076 3076 3076 3076 3076 3076 3076 3076 3077 3076 3075 3074 3074 3075 3073 3070 3067 3065 3064 3064 3063 3062 3061 3062 3061 3059 3058 3058 3056 3055 3055 3054 3054 3053 3051 3050 3048 3047 3046 3045 3044 3043 3042 3042 3043 3042
3077 3076 3075 3073 3071 3070 3069 3068 3067 3067 3067 3067 3066 3066 3065 3066 3065 3064 3064 3064 3065 3066 3066 3066 3067 3067 3068 3068 3069 3069 3070 3071 3071 3071 3072 3072 3072 3071 3071 3070 3070 3071 3071 3071 3071 3071 3071 3071 3071 3069 3068 3068 3068 3066 3064 3062 3060 3059 3059 3057 3055 3056 3057 3055 3053 3053 3052 3051 3051 3050 3050 3049 3048 3047 3046 3044 3042 3041 3040 3039 3039 3039 3039 3039 3037
3076 3074 3073 3072 3070 3068 3067 3066 3065 3064 3064 3064 3064 3063 3062 3062 3061 3060 3060 3060 3061 3061 3061 3061 3062 3063 3063 3064 3064 3065 3066 3067 3067 3067 3068 3068 3067 3066 3066 3065 3065 3066 3066 3065 3065 3065 3065 3065 3065 3064 3062 3061 3061 3059 3058 3057 3055 3054 3052 3050 3050 3051 3050 3049 3048 3048 3047 3046 3046 3045 3045 3045 3044 3043 3041 3040 3038 3037 3036 3035 3035 3035 3034 3034 3033
3074 3072 3071 3070 3069 3067 3066 3065 3063 3062 3061 3061 3060 3060 3059 3059 3058 3058 3057 3057 3057 3057 3057 3057 3057 3058 3059 3059 3060 3060 3061 3061 3062 3062 3062 3063 3062 3061 3060 3060 3060 3060 3060 3060 3059 3059 3060 3059 3059 3058 3057 3054 3053 3052 3052 3051 3049 3048 3046 3044 3044 3045 3044 3043 3044 3043 3042 3041 3041 3041 3041 3041 3040 3039 3037 3036 3034 3033 3031 3031 3032 3031 3030 3030 3028
3071 3070 3068 3067 3066 3065 3064 3063 3061 3060 3059 3058 3058 3057 3056 3056 3056 3055 3054 3054 3054 3053 3053 3053 3053 3054 3055 3055 3055 3056 3056 3056 3056 3056 3056 3056 3056 3055 3054 3054 3055 3055 3054 3054 3054 3055 3055 3054 3053 3052 3051 3049 3046 3045 3044 3043 3042 3041 3040 3038 3039 3039 3039 3039 3039 3038 3037 3037 3037 3037 3037 3036 3036 3034 3033 3031 3030 3029 3028 3028 3028 3027 3027 3026 3024
3067 3066 3065 3064 3063 3062 3061 3060 3059 3058 3057 3056 3055 3055 3054 3054 3053 3052 3052 3051 3050 3050 3050 3050 3050 3050 3050 3050 3050 3050 3050 3050 3050 3050 3050 3050 3050 3050 3049 3050 3051 3050 3048 3048 3050 3050 3049 3048 3047 3045 3044 3042 3040 3039 3037 3036 3036 3035 3035 3034 3034 3035 3035 3035 3034 3034 3033 3033 3034 3033 3033 3031 3030 3029 3028 3027 3026 3026 3026 3025 3024 3024 3023 3022 3020
3064 3063 3062 3061 3060 3059 3058 3057 3056 3056 3055 3054 3053 3052 3052 3051 3051 3049 3049 3048 3047 3047 3046 3047 3047 3047 3046 3046 3046 3045 3044 3043 3044 3045 3045 3045 3046 3045 3045 3045 3045 3044 3042 3043 3044 3043 3043 3042 3041 3039 3036 3035 3034 3034 3032 3031 3030 3030 3030 3030 3030 3030 3031 3030 3030 3029 3029 3029 3029 3029 3027 3026 3026 3025 3024 3024 3023 3023 3023 3022 3021 3020 3018 3018 3017
3061 3060 3059 3058 3057 3056 3055 3054 3053 3053 3052 3051 3051 3050 3050 3049 3048 3047 3046 3046 3044 3044 3044 3043 3043 3043 3042 3042 3041 3040 3038 3037 3038 3039 3040 3040 3041 3041 3041 3040 3039 3038 3038 3038 3038 3037 3036 3035 3034 3032 3030 3028 3028 3028 3027 3027 3026 3026 3026 3026 3026 3026 3026 3027 3026 3026 3026 3025 3025 3024 3023 3022 3022 3022 3021 3021 3020 3020 3019 3018 3016 3015 3014 3014 3014
3060 3058 3057 3056 3055 3054 3053 3051 3051 3050 3049 3049 3049 3048 3048 3047 3046 3045 3044 3043 3042 3041 3041 3040 3039 3039 3038 3037 3037 3036 3034 3033 3033 3034 3035 3035 3035 3035 3035 3035 3034 3033 3032 3032 3031 3030 3029 3028 3026 3024 3023 3022 3023 3023 3022 3022 3022 3022 3022 3022 3022 3022 3023 3023 3023 3022 3022 3021 3020 3019 3019 3018 3018 3018 3017 3017 3016 3015 3014 3013 3012 3011 3011 3010 3010
3059 3057 3056 3055 3054 3053 3052 3050 3049 3049 3048 3047 3047 3046 3046 3045 3044 3043 3042 3041 3040 3039 3038 3037 3036 3035 3034 3033 3033 3032 3031 3030 3030 3030 3031 3030 3030 3030 3030 3029 3028 3028 3027 3026 3026 3025 3024 3023 3021 3018 3017 3018 3018 3018 3018 3018 3018 3019 3019 3019 3019 3019 3019 3019 3018 3016 3016 3015 3015 3015 3015 3014 3014 3014 3013 3013 3012 3012 3011 3010 3009 3008 3007 3006 3005
3058 3057 3056 3054 3053 3052 3051 3050 3049 3048 3047 3046 3045 3044 3043 3042 3041 3041 3040 3039 3038 3037 3036 3035 3034 3032 3031 3030 3030 3029 3028 3028 3027 3027 3026 3026 3026 3025 3025 3025 3024 3024 3023 3022 3022 3020 3019 3018 3016 3013 3013 3015 3015 3015 3016 3016 3016 3016 3015 3015 3015 3015 3014 3013 3012 3012 3011 3011 3011 3011 3011 3011 3011 3010 3010 3009 3009 3008 3007 3006 3005 3004 3003 3003 3002
3057 3056 3055 3054 3053 3052 3050 3049 3048 3047 3045 3045 3044 3043 3042 3040 3039 3038 3038 3037 3035 3034 3033 3032 3031 3029 3028 3027 3026 3025 3025 3024 3024 3023 3023 3022 3022 3021 3021 3020 3020 3019 3019 3018 3018 3018 3017 3015 3014 3012 3012 3012 3012 3013 3013 3012 3012 3011 3011 3011 3010 3010 3009 3009 3009 3009 3009 3008 3008 3008 3008 3008 3008 3007 3007 3006 3005 3004 3003 3002 3002 3001 3000 3000 2999
3057 3056 3055 3054 3053 3051 3050 3049 3047 3046 3045 3044 3043 3041 3040 3039 3038 3037 3036 3036 3035 3033 3032 3031 3029 3028 3027 3025 3024 3023 3022 3021 3020 3020 3019 3019 3018 3018 3017 3017 3016 3016 3016 3016 3016 3015 3015 3014 3013 3012 3011 3010 3009 3009 3009 3009 3009 3009 3008 3008 3008 3007 3007 3007 3007 3007 3006 3006 3006 3006 3006 3006 3005 3004 3004 3003 3002 3001 3000 2999 2999 2998 2997 2997 2996
3057 3056 3055 3054 3052 3051 3049 3048 3047 3045 3044 3043 3041 3040 3039 3038 3037 3036 3035 3034 3033 3032 3030 3029 3028 3027 3026 3025 3024 3023 3022 3021 3019 3018 3018 3017 3016 3016 3016 3015 3015 3015 3014 3014 3013 3013 3012 3012 3011 3011 3010 3009 3009 3008 3008 3008 3008 3007 3007 3006 3006 3005 3005 3005 3005 3005 3005 3005 3005 3005 3004 3004 3003 3002 3001 3001 2999 2999 2997 2996 2996 2995 2994 2993 2993
3056 3055 3054 3053 3052 3050 3049 3048 3046 3045 3044 3042 3041 3040 3038 3037 3036 3034 3033 3032 3031 3030 3029 3028 3027 3026 3025 3024 3023 3022 3021 3020 3019 3018 3017 3017 3016 3016 3015 3015 3014 3014 3013 3013 3012 3011 3011 3010 3010 3009 3009 3008 3007 3007 3007 3006 3006 3006 3005 3005 3005 3004 3004 3004 3004 3004 3004 3004 3003 3003 3002 3002 3001 3000 2999 2998 2997 2996 2995 2994 2993 2992 2991 2990 2989
3056 3055 3054 3052 3051 3050 3049 3047 3046 3045 3044 3042 3041 3040 3038 3037 3036 3034 3033 3032 3031 3030 3029 3028 3027 3026 3024 3023 3022 3021 3020 3019 3018 3017 3016 3016 3015 3015 3014 3013 3013 3012 3011 3011 3010 3010 3009 3008 3008 3007 3007 3006 3006 3006 3005 3005 3005 3005 3005 3005 3004 3004 3004 3003 3003 3003 3002 3002 3002 3001 3000 2999 2998 2997 2996 2995 2994 2993 2992 2991 2991 2990 2989 2988 2987
3056 3055 3053 3052 3051 3049 3048 3047 3046 3045 3043 3042 3041 3039 3038 3037 3036 3035 3033 3032 3031 3030 3028 3027 3026 3025 3023 3022 3021 3020 3019 3018 3017 3016 3015 3014 3013 3012 3012 3011 3010 3010 3009 3009 3008 3008 3008 3007 3007 3006 3006 3006 3006 3005 3005 3005 3005 3004 3004 3003 3003 3003 3002 3002 3001 3001 3000 3000 2999 2999 2998 2997 2996 2995 2993 2993 2992 2991 2990 2990 2989 2988 2987 2986 2985
3056 3054 3053 3052 3050 3049 3048 3047 3046 3044 3043 3042 3041 3039 3038 3036 3035 3034 3033 3032 3030 3029 3028 3026 3025 3024 3023 3021 3020 3019 3018 3017 3016 3015 3014 3013 3013 3012 3011 3010 3010 3009 3009 3008 3008 3007 3007 3007 3006 3006 3005 3005 3005 3004 3004 3004 3003 3003 3002 3002 3002 3001 3001 3000 3000 2999 2998 2998 2997 2996 2995 2995 2994 2993 2992 2991 2990 2989 2989 2988 2987 2986 2985 2984 2983
3055 3054 3053 3051 3050 3049 3047 3046 3045 3044 3043 3042 3040 3039 3038 3036 3035 3034 3033 3031 3030 3029 3028 3026 3025 3024 3023 3021 3020 3019 3018 3017 3016 3015 3014 3014 3013 3013 3012 3011 3010 3009 3009 3008 3008 3007 3007 3006 3006 3005 3005 3005 3004 3004 3003 3003 3002 3002 3001 3001 3000 3000 2999 2999 2998 2997 2996 2996 2995 2994 2993 2992 2992 2991 2990 2990 2989 2988 2987 2987 2986 2985 2984 2983 2982
3055 3053 3052 3051 3049 3048 3047 3046 3045 3044 3042 3041 3040 3039 3037 3036 3035 3034 3032 3031 3030 3029 3028 3027 3025 3024 3023 3022 3021 3020 3019 3018 3017 3016 3015 3014 3014 3013 3012 3011 3011 3010 3009 3008 3008 3007 3006 3006 3005 3005 3004 3004 3004 3003 3003 3002 3001 3001 3000 3000 2999 2998 2998 2997 2996 2995 2995 2994 2993 2992 2991 2991 2990 2990 2989 2988 2988 2987 2986 2985 2984 2983 2982 2981 2980
3054 3053 3051 3050 3049 3047 3046 3045 3044 3043 3042 3041 3039 3038 3037 3036 3035 3034 3032 3031 3030 3029 3027 3026 3026 3025 3023 3022 3021 3020 3019 3018 3017 3016 3015 3014 3014 3013 3012 3012 3011 3010 3009 3008 3007 3006 3006 3005 3005 3004 3004 3003 3003 3002 3001 3001 3000 2999 2999 2998 2998 2997 2996 2995 2995 2994 2993 2992 2991 2990 2990 2989 2988 2988 2987 2986 2986 2985 2984 2983 2982 2981 2980 2979 2977
3054 3052 3051 3049 3048 3047 3046 3045 3043 3042 3041 3040 3039 3037 3036 3035 3034 3033 3032 3030 3029 3028 3027 3026 3025 3024 3023 3022 3021 3020 3019 3018 3017 3016 3015 3014 3014 3013 3012 3011 3010 3010 3009 3008 3007 3006 3005 3005 3004 3004 3003 3002 3002 3001 3000 2999 2998 2998 2997 2996 2996 2995 2994 2994 2993 2992 2991 2991 2990 2989 2988 2987 2986 2986 2985 2984 2983 2983 2982 2981 2980 2979 2978 2977 2975
3052 3051 3050 3049 3047 3046 3045 3044 3043 3041 3040 3039 3038 3037 3036 3035 3033 3032 3031 3030 3028 3027 3026 3025 3024 3023 3022 3021 3020 3019 3018 3017 3016 3015 3014 3013 3013 3012 3011 3010 3009 3009 3008 3007 3006 3005 3005 3004 3003 3003 3002 3001 3000 3000 2999 2998 2997 2996 2995 2994 2993 2993 2992 2992 2991 2991 2990 2989 2988 2988 2987 2986 2985 2984 2983 2982 2981 2980 2979 2978 2978 2977 2976 2974 2973
3051 3049 3048 3047 3046 3045 3044 3043 3041 3040 3039 3038 3037 3036 3035 3034 3032 3031 3030 3029 3028 3027 3025 3024 3023 3022 3021 3020 3019 3018 3017 3015 3014 3013 3013 3012 3011 3010 3009 3008 3007 3007 3006 3005 3004 3004 3003 3002 3001 3001 3000 2999 2998 2997 2997 2996 2995 2994 2993 2992 2991 2990 2990 2989 2989 2989 2988 2987 2986 2986 2985 2984 2983 2982 2981 2980 2979 2978 2977 2976 2975 2974 2973 2972 2970
3048 3047 3046 3045 3045 3044 3043 3041 3040 3039 3038 3037 3036 3035 3034 3032 3031 3030 3029 3028 3027 3025 3024 3023 3022 3021 3020 3018 3017 3016 3015 3014 3013 3012 3011 3010 3009 3008 3007 3006 3005 3004 3004 3003 3002 3001 3000 2999 2999 2998 2997 2996 2995 2995 2994 2993 2993 2992 2991 2991 2990 2989 2988 2987 2987 2986 2985 2984 2983 2983 2982 2981 2980 2979 2979 2978 2977 2976 2975 2974 2972 2971 2970 2969 2968
3046 3045 3044 3043 3042 3042 3041 3040 3038 3037 3036 3035 3034 3033 3032 3031 3030 3029 3027 3026 3025 3024 3023 3022 3020 3019 3018 3017 3016 3015 3014 3012 3011 3010 3009 3008 3007 3006 3005 3004 3003 3002 3001 3000 2999 2998 2997 2996 2996 2995 2994 2993 2993 2992 2991 2991 2990 2989 2989 2988 2988 2987 2987 2986 2985 2984 2983 2982 2981 2980 2980 2979 2977 2976 2976 2975 2974 2973 2972 2971 2970 2969 2967 2966 2965
3044 3043 3041 3040 3040 3039 3038 3037 3036 3035 3034 3033 3032 3031 3030 3029 3028 3026 3025 3024 3023 3022 3021 3020 3019 3017 3016 3015 3014 3013 3011 3010 3009 3008 3007 3005 3004 3003 3002 3001 3000 2999 2998 2997 2996 2995 2994 2993 2992 2991 2991 2990 2990 2989 2988 2988 2987 2986 2985 2985 2985 2984 2984 2983 2983 2982 2981 2980 2979 2978 2977 2976 2975 2974 2973 2972 2971 2970 2969 2968 2967 2966 2965 2964 2962
3041 3040 3039 3038 3037 3036 3036 3035 3034 3033 3032 3031 3029 3028 3027 3026 3025 3024 3023 3022 3020 3019 3018 3017 3016 3015 3014 3012 3011 3010 3009 3007 3006 3005 3004 3003 3001 3000 2999 2998 2997 2996 2995 2994 2993 2992 2991 2990 2989 2988 2988 2987 2986 2985 2985 2984 2983 2983 2982 2981 2981 2980 2980 2980 2979 2979 2978 2977 2976 2975 2975 2974 2972 2971 2970 2969 2968 2967 2966 2965 2964 2964 2963 2961 2960
3039 3038 3037 3036 3035 3034 3033 3032 3031 3030 3029 3028 3027 3025 3024 3023 3022 3021 3020 3019 3017 3016 3015 3014 3013 3011 3010 3009 3008 3006 3005 3004 3003 3002 3000 2999 2998 2997 2996 2994 2993 2992 2991 2990 2989 2988 2987 2986 2985 2985 2984 2983 2982 2981 2981 2980 2979 2979 2978 2977 2977 2976 2976 2975 2975 2974 2974 2974 2973 2972 2971 2970 2969 2969 2967 2966 2965 2964 2962 2961 2961 2960 2959 2958 2957
3036 3035 3033 3032 3032 3031 3030 3029 3028 3027 3025 3024 3023 3022 3021 3020 3019 3017 3016 3015 3014 3013 3011 3010 3009 3008 3006 3005 3004 3003 3002 3000 2999 2998 2996 2995 2994 2993 2991 2990 2989 2988 2987 2986 2985 2984 2983 2982 2981 2980 2979 2978 2977 2977 2976 2975 2975 2974 2973 2972 2972 2971 2971 2970 2970 2969 2969 2969 2968 2968 2967 2967 2966 2965 2964 2963 2962 2960 2959 2958 2957 2956 2956 2955 2954
3033 3032 3031 3030 3029 3027 3026 3025 3024 3023 3022 3021 3019 3018 3017 3016 3015 3014 3012 3011 3010 3009 3007 3006 3005 3004 3002 3001 3000 2999 2997 2996 2995 2993 2992 2991 2990 2988 2987 2986 2985 2983 2982 2981 2980 2979 2978 2977 2976 2975 2974 2973 2972 2972 2971 2970 2969 2969 2968 2967 2967 2966 2965 2965 2965 2964 2964 2963 2963 2963 2962 2962 2962 2961 2960 2959 2958 2957 2956 2955 2953 2953 2952 2952 2951
3031 3030 3029 3027 3026 3024 3023 3022 3021 3020 3018 3017 3016 3015 3013 3012 3011 3010 3008 3007 3006 3005 3003 3002 3001 2999 2998 2997 2995 2994 2993 2991 2990 2989 2988 2986 2985 2984 2982 2981 2980 2979 2978 2976 2975 2974 2973 2972 2971 2970 2969 2968 2967 2966 2965 2965 2964 2963 2962 2962 2961 2960 2960 2959 2959 2958 2958 2958 2957 2957 2957 2956 2956 2956 2956 2955 2954 2953 2952 2951 2950 2949 2948 2948 2948
3029 3028 3026 3025 3023 3022 3021 3019 3018 3017 3015 3014 3013 3011 3010 3009 3007 3006 3005 3003 3002 3000 2999 2997 2996 2995 2993 2992 2991 2989 2988 2987 2985 2984 2983 2981 2980 2979 2977 2976 2975 2974 2972 2971 2970 2969 2968 2967 2966 2965 2964 2963 2962 2961 2960 2959 2958 2957 2956 2955 2955 2954 2953 2953 2952 2952 2952 2951 2951 2951 2951 2950 2950 2950 2950 2950 2950 2949 2948 2947 2946 2945 2944 2944 2944
3026 3025 3024 3022 3021 3019 3018 3016 3015 3014 3012 3011 3009 3008 3006 3005 3003 3002 3001 2999 2998 2996 2995 2993 2992 2990 2989 2987 2986 2984 2983 2981 2980 2979 2977 2976 2975 2973 2972 2971 2969 2968 2967 2966 2964 2963 2962 2961 2960 2959 2958 2957 2956 2955 2954 2953 2952 2951 2950 2949 2949 2948 2947 2947 2946 2946 2945 2945 2945 2944 2944 2944 2944 2944 2944 2944 2944 2943 2943 2943 2942 2941 2940 2940 2940